This is the latest recevied weather packets stored in our database for station/object KD4IZ-13. If no packets are shown the sender has not sent any weather packets the latest 10 day(s).
| Time | Temp. | Humidity | Pressure | Rain* | Wind** | Luminosity | Snow |
|---|---|---|---|---|---|---|---|
| 1778141269 | 10° C | 99% | 1012.6 hPa | 0 mm | - | 0 W/m² | - |
| 1778140965 | 10° C | 99% | 1012.5 hPa | 0 mm | - | 0 W/m² | - |
| 1778140661 | 10° C | 99% | 1012.5 hPa | 0 mm | - | 0 W/m² | - |
| 1778140357 | 10° C | 99% | 1012.3 hPa | 0 mm | - | 0 W/m² | - |
| 1778140053 | 10.56° C | 99% | 1012.3 hPa | 0 mm | - | 0 W/m² | - |
| 1778139752 | 10.56° C | 99% | 1012.1 hPa | 0 mm | - | 0 W/m² | - |
| 1778139448 | 10.56° C | 99% | 1012.1 hPa | 0 mm | - | 0 W/m² | - |
| 1778139145 | 10.56° C | 99% | 1012.2 hPa | 0 mm | - | 0 W/m² | - |
| 1778138843 | 10.56° C | 99% | 1012.5 hPa | 0 mm | - | 0 W/m² | - |
| 1778138540 | 10.56° C | 99% | 1012.5 hPa | 0 mm | - | 0 W/m² | - |
| 1778138237 | 10.56° C | 99% | 1012.8 hPa | 1.27 mm | - | 0 W/m² | - |
| 1778137934 | 10.56° C | 99% | 1012.6 hPa | 1.27 mm | - | 0 W/m² | - |
| 1778137630 | 10.56° C | 99% | 1012.7 hPa | 0 mm | - | 0 W/m² | - |
| 1778137327 | 10.56° C | 99% | 1012.8 hPa | 1.78 mm | - | 0 W/m² | - |
| 1778137023 | 10.56° C | 99% | 1012.4 hPa | 1.27 mm | - | 0 W/m² | - |
| 1778136721 | 10.56° C | 99% | 1012.7 hPa | 1.27 mm | - | 0 W/m² | - |
| 1778136418 | 10.56° C | 99% | 1012.9 hPa | 0 mm | - | 0 W/m² | - |
| 1778136117 | 10.56° C | 99% | 1012.8 hPa | 0 mm | - | 0 W/m² | - |
| 1778135814 | 10.56° C | 99% | 1012.7 hPa | 0 mm | - | 0 W/m² | - |
| 1778135510 | 10.56° C | 99% | 1012.9 hPa | 1.78 mm | - | 0 W/m² | - |
| 1778135207 | 10.56° C | 99% | 1013 hPa | 1.78 mm | - | 0 W/m² | - |
| 1778134905 | 10.56° C | 99% | 1012.9 hPa | 0 mm | - | 0 W/m² | - |
| 1778134603 | 11.11° C | 99% | 1012.8 hPa | 1.27 mm | - | 0 W/m² | - |
| 1778134300 | 11.11° C | 99% | 1012.8 hPa | 1.27 mm | - | 0 W/m² | - |
| 1778133998 | 11.11° C | 99% | 1012.8 hPa | 0 mm | - | 0 W/m² | - |
* Rain latest hour (hover to see other rain measurements)
** Current wind speed in m/s (hover to see current wind gust speed)